Wind_Speed
9 9 10 11 13 14 16 17 17 18 21 23 21 18 15 14 12 12 13 15 12 10 18 18 15 15 14 14 16 17 17 18 18 19 17 16 16 17 18 17 14 13 14 9 7
12 11 11 12 14 15 16 18 18 18 18 22 24 21 18 16 15 15 15 17 13 14 21 19 14 16 16 15 18 21 15 20 17 17 16 14 13 14 17 18 17 15 13 10 10
15 14 13 14 15 16 17 19 19 19 19 19 23 24 21 19 17 16 16 16 16 16 17 15 13 15 18 16 23 26 29 24 18 15 15 14 13 13 16 18 19 18 14 12 10
19 18 17 16 16 17 18 19 20 21 20 20 21 24 24 23 21 18 17 15 19 15 16 13 14 20 19 25 27 30 26 26 21 16 16 17 15 15 16 20 20 20 18 18 18
23 22 20 19 18 19 19 19 20 21 22 22 23 23 27 24 21 20 20 20 19 15 15 15 12 21 22 26 25 27 25 26 24 22 17 20 19 17 17 19 19 19 20 21 22
27 25 24 23 22 21 20 21 21 21 22 23 23 24 25 26 24 24 23 24 24 18 16 15 14 23 23 25 28 27 24 23 24 27 22 23 22 19 18 19 18 17 19 20 22
26 29 28 26 25 23 23 23 23 22 22 24 25 24 25 28 27 26 25 23 22 21 18 15 16 22 24 26 28 25 23 22 23 24 24 24 23 20 18 18 20 18 19 21 22
32 28 32 31 28 26 25 25 25 24 24 24 26 26 26 31 29 28 27 24 22 20 21 14 15 25 26 25 28 22 21 17 20 21 22 23 20 18 17 17 17 18 17 18 19
21 33 31 33 33 30 28 27 26 26 26 26 26 27 30 30 29 32 28 28 26 23 20 18 15 23 25 26 26 22 8 16 17 18 20 23 23 22 17 15 14 15 16 16 17
27 25 33 34 34 35 32 30 29 28 28 28 28 30 30 29 28 30 30 28 27 24 21 20 19 22 26 22 9 12 15 16 15 13 16 20 23 22 20 16 14 13 12 13 14
33 31 29 30 37 36 37 35 32 30 30 32 31 33 32 29 28 32 30 28 29 29 24 20 21 22 32 24 23 18 17 16 15 14 13 16 18 19 18 16 14 14 12 12 12
39 37 35 32 31 40 38 39 37 34 33 34 35 35 35 32 30 33 33 32 30 27 27 24 23 29 34 26 26 24 21 19 17 15 11 10 13 12 15 15 13 13 14 12 12
45 43 41 38 35 33 42 38 41 39 37 37 37 39 38 35 34 34 32 30 27 26 24 22 24 35 34 32 29 27 21 17 17 15 11 9 8 9 8 13 14 12 11 12 10
52 49 47 45 42 38 36 43 39 43 42 39 37 40 40 39 38 35 33 31 31 27 25 26 29 35 38 37 32 21 23 21 18 16 6 12 3 5 7 10 12 13 11 12 10
59 56 53 51 48 45 41 40 44 41 46 45 43 41 43 42 39 38 35 35 32 27 31 27 29 34 41 40 34 22 28 25 22 14 14 13 14 10 7 8 9 10 12 12 12
68 63 60 57 55 51 47 44 45 47 51 48 47 43 45 44 42 42 39 36 36 35 31 32 32 33 39 42 39 38 29 27 26 14 14 15 13 11 9 6 7 8 9 14 12
76 72 67 63 61 57 54 51 48 56 52 51 47 45 44 45 46 44 43 43 39 38 40 41 33 34 35 44 47 39 29 23 22 17 12 21 21 12 11 12 8 8 7 9 9
83 78 75 71 67 64 61 59 58 46 53 48 49 47 46 46 49 47 46 44 40 36 35 34 38 37 35 39 42 47 30 19 17 16 17 24 21 14 17 15 13 10 6 4 8
89 87 80 78 74 71 68 65 58 55 45 51 45 50 47 48 51 52 50 44 41 40 41 38 36 33 36 36 35 37 37 22 17 22 19 17 23 22 21 15 12 10 7 3 1
92 92 87 82 79 77 74 67 64 61 54 50 51 46 48 49 53 54 52 48 45 42 39 35 35 34 32 41 37 39 28 27 22 17 18 18 22 15 22 16 14 10 5 9 5
83 94 91 87 83 83 79 72 70 67 56 54 51 51 47 49 50 54 52 50 48 44 44 42 38 37 43 48 41 37 35 31 20 19 18 14 20 26 26 21 13 13 17 15 7
61 77 88 90 87 86 83 78 76 70 62 59 54 56 52 50 49 53 56 51 48 47 48 44 41 41 43 40 41 35 33 32 27 27 26 23 17 25 23 20 18 13 16 15 10
37 48 69 84 88 88 86 84 82 75 70 64 59 55 55 54 53 51 55 52 52 52 51 48 47 47 41 51 47 44 37 34 29 23 24 26 19 24 23 21 19 16 15 16 15
29 36 46 67 87 92 89 85 83 76 74 68 64 59 56 54 53 52 54 56 55 53 54 53 47 49 46 44 47 47 46 40 33 33 27 27 24 26 26 20 19 21 21 21 22
28 35 41 52 73 87 90 87 86 81 77 71 66 62 57 57 56 52 50 57 56 57 57 57 55 51 48 39 43 47 46 41 38 33 31 24 26 28 29 25 24 25 25 24 26
23 31 39 46 62 75 85 85 83 77 78 76 72 66 62 59 57 58 49 53 58 59 60 58 58 55 53 53 47 44 44 45 42 38 34 31 28 28 24 24 26 28 29 28 28
19 26 35 41 51 64 72 80 81 84 83 79 77 70 69 63 64 60 58 59 60 62 61 61 60 58 56 53 52 53 50 48 47 44 43 36 34 33 28 22 20 22 22 22 24
Wind_Direction
219 216 212 206 198 199 198 196 194 196 196 194 196 200 198 190 200 196 181 166 166 152 126 124 118 114 107 100 93 100 68 90 92 87 85 80 82 81 81 80 81 90 98 116 134
226 223 220 215 209 202 203 201 197 195 192 193 198 201 202 198 200 202 192 181 188 160 137 124 114 115 107 99 97 96 91 97 95 92 86 84 80 86 84 79 74 74 80 96 106
236 228 224 220 218 210 203 208 203 200 197 190 196 200 202 199 202 203 192 183 177 166 144 132 118 117 116 109 109 105 96 94 98 96 91 81 79 79 89 87 78 73 72 82 95
235 234 229 225 222 220 212 206 210 206 202 195 193 198 200 198 202 198 190 189 169 173 149 141 127 119 112 122 118 105 105 95 96 94 95 91 81 78 88 87 81 78 74 80 90
237 235 233 229 225 222 221 214 209 210 209 202 196 194 200 198 199 198 192 195 186 179 153 151 144 132 125 132 126 119 116 108 101 94 96 95 88 78 85 90 84 79 80 84 90
240 237 235 233 228 224 221 222 216 210 211 208 203 197 198 199 200 200 197 197 199 194 184 156 159 152 143 134 125 120 116 116 109 98 95 93 88 82 83 88 88 86 86 87 91
240 240 236 235 233 227 223 221 222 215 211 212 209 202 195 201 199 200 206 203 203 204 206 164 163 159 154 143 128 115 108 107 108 106 98 102 85 83 83 79 84 83 92 92 94
240 238 240 236 233 232 227 222 220 220 216 212 212 208 200 203 200 201 210 209 207 211 215 192 176 167 160 157 135 126 119 101 110 107 104 111 85 89 80 82 85 86 89 95 96
247 239 237 239 236 231 230 228 220 218 217 215 212 209 207 206 201 201 206 209 210 211 214 206 179 171 171 156 145 128 153 130 116 117 115 110 102 87 75 76 81 87 89 91 93
242 241 240 235 237 235 229 229 225 219 216 215 212 210 207 208 202 201 205 209 212 211 210 208 195 186 170 159 173 168 155 125 121 121 123 120 115 102 82 75 71 72 80 82 88
242 240 238 239 233 236 232 228 227 222 217 216 212 211 211 209 205 202 199 206 209 210 208 208 208 188 169 169 194 168 159 144 143 135 131 126 126 123 109 88 80 80 74 78 83
244 240 238 235 237 232 233 230 228 223 221 217 212 211 211 208 204 201 199 203 206 204 205 201 192 182 188 185 169 170 168 159 149 144 130 124 136 123 119 107 92 90 87 79 83
244 240 239 235 233 233 230 230 229 226 222 220 214 213 212 209 207 206 205 208 211 208 204 197 179 191 190 188 176 176 169 171 152 153 138 125 130 116 110 114 106 96 92 87 84
244 240 237 236 233 230 230 229 228 228 225 222 217 213 214 211 211 210 206 207 211 209 205 206 207 190 196 188 182 189 184 174 167 151 171 141 225 138 110 90 97 103 104 100 97
242 240 235 235 233 229 227 227 227 226 227 220 220 213 213 213 213 212 210 207 210 214 213 208 196 194 194 192 193 197 196 184 178 170 176 185 147 238 135 111 101 97 104 100 111
240 237 235 232 231 229 225 225 224 225 227 221 220 215 216 211 210 211 214 211 209 211 205 216 210 205 195 195 195 201 193 186 182 188 194 208 162 252 177 178 155 122 115 105 102
236 235 233 230 229 226 225 223 223 223 223 221 219 217 218 214 214 212 213 210 209 200 202 211 203 208 200 202 199 193 193 194 196 202 192 214 191 176 204 209 203 169 152 116 107
233 231 229 229 227 224 223 223 222 223 222 223 218 217 216 214 213 215 215 211 210 207 213 210 205 202 196 197 205 198 196 197 208 210 228 211 208 214 204 229 213 237 179 136 117
228 228 225 224 224 223 221 223 224 223 218 221 220 217 215 214 215 213 215 215 210 209 210 208 210 210 201 200 200 196 199 198 213 207 207 230 208 214 212 227 227 237 188 208 158
223 224 222 220 221 220 221 220 222 222 216 218 219 217 217 215 215 214 216 211 210 209 210 210 212 210 205 203 198 204 199 198 197 207 206 231 202 198 214 215 222 226 233 231 243
221 218 218 215 216 218 220 219 219 221 215 216 215 216 213 214 215 218 219 215 210 207 208 211 210 209 209 208 210 205 201 200 212 209 211 209 216 215 210 212 219 229 242 263 266
224 222 212 211 212 215 216 216 217 218 216 213 215 214 213 212 214 215 217 216 213 209 213 212 207 216 216 214 216 220 219 211 206 208 194 200 213 219 219 222 212 238 246 260 264
222 223 216 210 209 211 213 213 215 214 215 212 212 212 213 211 211 213 213 213 212 210 210 211 212 214 211 217 215 220 217 221 221 220 232 220 214 231 218 225 232 239 260 266 264
209 207 209 209 208 209 210 212 213 213 214 210 211 210 210 212 211 211 212 211 212 211 210 213 215 218 221 223 221 218 220 223 221 225 224 234 221 243 231 226 235 250 254 260 265
209 205 203 203 206 208 209 211 210 209 212 211 211 209 210 210 212 211 210 212 210 211 212 213 213 215 215 218 226 226 226 226 232 234 232 234 246 227 242 239 244 238 243 253 256
210 205 200 202 206 207 209 210 211 209 211 210 207 207 209 209 208 212 209 212 210 210 212 212 213 214 213 224 226 227 224 228 228 233 236 239 237 248 243 244 243 250 251 254 247
209 206 203 199 203 206 209 210 209 208 211 210 205 207 205 206 209 211 208 210 209 208 212 214 214 214 215 219 225 226 222 224 229 229 228 231 238 248 251 249 246 248 253 255 255
Height
5886 5887 5888 5889 5890 5892 5894 5895 5898 5900 5903 5906 5908 5911 5913 5915 5916 5917 5920 5923 5924 5926 5928 5929 5929 5929 5929 5929 5928 5926 5930 5926 5925 5923 5923 5922 5921 5919 5917 5917 5917 5916 5916 5917 5917
5884 5885 5886 5887 5889 5891 5892 5894 5896 5898 5901 5904 5906 5909 5912 5914 5916 5917 5920 5923 5925 5928 5930 5931 5931 5931 5931 5932 5931 5927 5934 5927 5926 5925 5924 5924 5924 5922 5921 5920 5919 5917 5917 5918 5917
5881 5883 5884 5885 5886 5888 5890 5892 5894 5896 5899 5902 5904 5907 5910 5913 5915 5916 5919 5923 5925 5929 5931 5932 5932 5933 5933 5935 5934 5931 5931 5928 5926 5926 5925 5925 5925 5925 5923 5922 5921 5921 5920 5918 5918
5878 5879 5881 5882 5884 5885 5887 5889 5892 5894 5897 5899 5902 5905 5907 5910 5914 5915 5919 5922 5926 5929 5932 5933 5933 5934 5936 5937 5936 5935 5932 5930 5928 5928 5927 5927 5927 5926 5925 5924 5923 5923 5921 5920 5917
5874 5876 5878 5879 5880 5882 5884 5887 5889 5892 5894 5896 5899 5902 5905 5908 5912 5914 5918 5921 5925 5928 5931 5934 5935 5936 5938 5938 5938 5936 5934 5933 5931 5931 5931 5929 5930 5929 5927 5925 5925 5924 5922 5920 5919
5868 5871 5873 5875 5877 5879 5881 5884 5886 5889 5891 5894 5896 5899 5903 5906 5909 5912 5916 5920 5923 5927 5931 5933 5935 5937 5939 5939 5939 5938 5937 5935 5934 5932 5933 5931 5931 5932 5931 5929 5927 5927 5926 5925 5924
5863 5865 5867 5870 5873 5875 5877 5879 5882 5885 5888 5891 5893 5896 5900 5904 5906 5910 5913 5917 5922 5925 5929 5932 5934 5936 5938 5939 5940 5940 5940 5939 5937 5935 5935 5933 5935 5934 5934 5933 5931 5931 5930 5929 5928
5855 5858 5860 5863 5867 5871 5873 5875 5878 5881 5884 5887 5890 5893 5897 5898 5904 5908 5911 5916 5920 5924 5928 5932 5934 5936 5939 5940 5941 5941 5941 5943 5940 5939 5937 5935 5939 5937 5937 5936 5935 5933 5932 5932 5931
5849 5851 5853 5856 5860 5864 5868 5871 5873 5876 5880 5883 5886 5889 5892 5896 5901 5905 5909 5913 5917 5922 5925 5931 5934 5936 5940 5942 5943 5943 5949 5945 5943 5941 5940 5939 5940 5940 5940 5939 5937 5936 5935 5935 5935
5841 5843 5845 5849 5852 5857 5861 5865 5868 5871 5875 5879 5882 5886 5889 5893 5897 5902 5906 5910 5914 5919 5924 5928 5933 5936 5939 5943 5949 5948 5948 5946 5945 5945 5943 5942 5941 5941 5942 5941 5941 5940 5939 5939 5939
5833 5835 5837 5840 5845 5848 5854 5858 5864 5867 5869 5873 5877 5879 5885 5890 5894 5897 5903 5907 5911 5916 5921 5925 5931 5935 5940 5940 5941 5945 5946 5947 5947 5947 5946 5945 5944 5943 5943 5944 5944 5943 5943 5942 5942
5824 5826 5829 5831 5835 5840 5844 5850 5855 5860 5863 5866 5870 5874 5879 5884 5889 5893 5898 5903 5906 5913 5918 5922 5927 5934 5936 5939 5942 5945 5947 5947 5947 5947 5948 5948 5947 5947 5946 5946 5946 5946 5945 5946 5945
5812 5816 5819 5822 5826 5830 5835 5841 5846 5851 5856 5859 5863 5867 5873 5880 5884 5889 5895 5901 5905 5911 5914 5921 5928 5929 5934 5938 5941 5944 5946 5947 5947 5948 5949 5950 5951 5950 5949 5948 5948 5948 5947 5948 5949
5798 5803 5808 5811 5817 5820 5825 5832 5837 5842 5847 5853 5858 5862 5867 5874 5878 5885 5891 5897 5900 5906 5913 5917 5920 5926 5931 5935 5939 5944 5944 5945 5947 5947 5954 5952 5958 5953 5951 5950 5949 5949 5949 5950 5951
5781 5787 5794 5799 5804 5809 5817 5821 5826 5832 5836 5844 5848 5855 5859 5866 5875 5879 5886 5890 5896 5902 5906 5912 5915 5920 5925 5932 5936 5941 5941 5943 5945 5947 5949 5952 5953 5953 5952 5952 5952 5951 5951 5951 5952
5762 5769 5777 5784 5790 5798 5804 5809 5815 5821 5822 5832 5839 5846 5852 5859 5866 5872 5880 5885 5890 5894 5901 5907 5910 5915 5923 5927 5931 5933 5938 5941 5943 5946 5949 5952 5952 5953 5953 5953 5953 5953 5953 5953 5955
5738 5748 5758 5767 5774 5783 5790 5796 5802 5803 5815 5824 5833 5840 5846 5853 5857 5865 5870 5875 5881 5886 5891 5895 5904 5910 5916 5919 5922 5931 5935 5941 5945 5945 5951 5948 5951 5957 5955 5953 5954 5954 5955 5956 5956
5710 5724 5736 5746 5755 5765 5774 5781 5786 5798 5808 5815 5825 5831 5837 5845 5849 5858 5863 5869 5877 5885 5891 5894 5898 5903 5910 5915 5920 5925 5932 5939 5942 5946 5949 5946 5948 5951 5951 5952 5953 5953 5955 5956 5958
5679 5696 5712 5722 5735 5745 5756 5764 5776 5786 5798 5806 5814 5821 5829 5835 5842 5847 5854 5865 5873 5879 5883 5888 5895 5902 5906 5913 5918 5923 5923 5935 5940 5940 5946 5945 5947 5947 5950 5951 5952 5952 5953 5955 5956
5645 5665 5683 5699 5711 5724 5737 5752 5763 5772 5785 5793 5803 5812 5821 5827 5833 5838 5846 5857 5865 5872 5880 5885 5891 5896 5905 5907 5912 5915 5925 5926 5931 5939 5942 5943 5944 5950 5949 5950 5950 5951 5952 5953 5955
5613 5632 5654 5673 5687 5702 5720 5737 5747 5756 5774 5784 5794 5801 5810 5818 5826 5832 5841 5850 5858 5867 5871 5877 5885 5891 5893 5896 5905 5910 5915 5921 5932 5934 5939 5943 5944 5944 5944 5946 5948 5950 5950 5952 5953
5592 5605 5625 5647 5667 5684 5701 5718 5729 5742 5759 5769 5780 5789 5799 5808 5815 5823 5831 5842 5852 5860 5863 5871 5879 5881 5888 5898 5904 5908 5913 5917 5922 5926 5931 5937 5945 5940 5943 5945 5945 5947 5948 5950 5950
5578 5589 5604 5624 5648 5663 5679 5695 5709 5727 5740 5755 5767 5777 5787 5797 5805 5813 5822 5834 5841 5848 5854 5863 5869 5875 5882 5885 5894 5898 5906 5912 5918 5924 5927 5930 5937 5935 5937 5940 5943 5944 5945 5946 5947
5573 5581 5590 5604 5623 5642 5656 5675 5694 5712 5723 5740 5754 5765 5777 5786 5795 5804 5812 5822 5829 5840 5847 5854 5864 5868 5874 5882 5888 5892 5898 5904 5911 5915 5921 5923 5928 5930 5931 5935 5938 5940 5941 5942 5942
5568 5573 5583 5591 5608 5620 5641 5659 5675 5693 5709 5726 5742 5755 5767 5776 5785 5794 5803 5810 5820 5828 5835 5844 5852 5860 5870 5872 5879 5885 5893 5899 5902 5908 5913 5921 5920 5924 5925 5929 5933 5934 5936 5937 5938
5563 5569 5574 5584 5596 5612 5627 5642 5660 5679 5693 5711 5726 5742 5754 5764 5774 5782 5792 5799 5808 5816 5825 5834 5842 5851 5859 5864 5871 5877 5883 5889 5895 5901 5905 5911 5914 5916 5919 5921 5924 5927 5929 5931 5932
5562 5565 5569 5577 5586 5600 5611 5624 5644 5662 5678 5695 5708 5725 5737 5749 5756 5769 5777 5784 5796 5807 5816 5825 5833 5842 5850 5857 5862 5864 5871 5878 5884 5890 5895 5901 5907 5910 5912 5915 5918 5920 5923 5925 5927